Regional Weather Roundup
Issued by NWS

Home | Current Version | Previous Version | Text Only | Print | Product List | Glossary On
Versions: 1 2 3 4 5 6 7 8 9 10 11 12 13 14 15 16 17 18 19 20 21 22 23 24 25 26 27 28 29 30 31 32 33 34 35 36 37 38 39 40 41 42 43 44 45 46 47 48 49 50
000
ASUS45 KBOU 271107
RWRCO

WEATHER ROUNDUP FOR COLORADO
NATIONAL WEATHER SERVICE DENVER/BOULDER CO
400 AM MST TUE JAN 27 2015

NOTE: "FAIR" INDICATES FEW OR NO CLOUDS BELOW 12000 FEET WITH NO
SIGNIFICANT WEATHER AND/OR OBSTRUCTIONS TO VISIBILITY.

COZ001>005-013-030-031-271200-
...NORTHWEST COLORADO...

CITY           SKY/WX    TMP DP  RH WIND       PRES   REMARKS
CRAIG          CLEAR     13  10  88 CALM      30.34F
HAYDEN         PTCLDY    27  18  69 E17       30.33F WCI  14
MEEKER         CLEAR     17  13  84 NE6       30.33F WCI   9
MOUNT WERNER   NOT AVBL
STEAMBOAT SPGS PTCLDY    18  16  93 CALM      30.35F
WALDEN         PTCLDY    16  10  79 SE6       30.37F WCI   7
$$

COZ006>008-011-271200-
...WEST CENTRAL VALLEYS...

CITY           SKY/WX    TMP DP  RH WIND       PRES   REMARKS
GRAND JUNCTION PTCLDY    32  25  75 SE7       30.29F WCI  26
MONTROSE       PTCLDY    28  21  75 SE6       30.34F WCI  22
EAGLE          PTCLDY    19  18  93 E5        30.44S WCI  13
RIFLE          CLEAR     27  22  81 SW5       30.35F WCI  22
DELTA          PTCLDY    28  23  81 CALM      30.33F
NUCLA          PTCLDY    32  25  74 N3        30.35S
$$

COZ017>023-064>068-271200-
...SOUTHWEST COLORADO...

CITY           SKY/WX    TMP DP  RH WIND       PRES   REMARKS
DURANGO        PTCLDY    31  24  75 CALM      30.35F
CORTEZ         CLEAR     29  23  78 NE6       30.32F WCI  23
PAGOSA SPRINGS PTCLDY    28  22  78 CALM      30.40F
TELLURIDE      MOCLDY    38  18  44 SE7       30.41F
WOLF CREEK PAS NOT AVBL
$$

COZ009-010-012-014-032>034-037-058>063-271200-
...CENTRAL COLORADO...

CITY           SKY/WX    TMP DP  RH WIND       PRES   REMARKS
ASPEN          PTCLDY    22  15  75 S7        30.37F WCI  13
BUENA VISTA    PTCLDY    25  19  77 NW6       30.40S WCI  18
COPPER MTN     PTCLDY    37   7  28 S12       30.52F
BERTHOUD PASS  FAIR      30  25  80 W17       30.54F WCI  18
COTTONWOOD PAS PTCLDY    43  10  26 CALM      30.43F
GUNNISON       PTCLDY     1   1 100 NE3       30.49S
KREMMLING      FOG      N/A N/A N/A CALM      30.46F VSB 1/4
LEADVILLE      PTCLDY    23  10  57 CALM      30.43F
MONARCH PASS   PTCLDY    32  12  43 SW23      30.61F WCI  19
SALIDA         PTCLDY    33  20  59 NW9       30.45F WCI  25
SUNLIGHT       CLEAR     36  18  48 CALM        N/A
WILKERSON PASS PTCLDY    32  12  43 SW9       30.50S WCI  24
$$

COZ069>075-271200-
...SAN LUIS VALLEY/SANGRE DE CRISTO MOUNTAINS...

CITY           SKY/WX    TMP DP  RH WIND       PRES   REMARKS
ALAMOSA        PTCLDY    11   7  84 CALM      30.42S
LA VETA PASS   NOT AVBL
SAGUACHE       PTCLDY    23  18  80 NW13      30.42F WCI  11
$$

COZ035-036-038>040-271200-
...NORTHERN COLORADO FRONT RANGE...

CITY           SKY/WX    TMP DP  RH WIND       PRES   REMARKS
DENVER INTL AP CLEAR     48  22  35 SW14      30.16F
DMNS CITY PARK   N/A     49  19  30 S13       30.17F
AURORA         CLEAR     45  22  39 S17       30.18F
FRONT RANGE AP NOT AVBL
ERIE MUNI ARPT CLEAR     34  24  67 S6        30.15F WCI  29
BOULDER MUN AP CLEAR     52  19  28 SW5       30.14F
CENTENNIAL     CLEAR     50  20  30 SW16      30.20F
BROOMFIELD     CLEAR     48  19  32 SW7       30.17F
FORT COLLINS   CLEAR     36  21  55 CALM      30.14F
LONGMONT       CLEAR     32  23  70 SW5       30.16F WCI  27
$$

COZ041-046-047-076>085-087-088-271200-
...PIKES PEAK/PALMER DIVIDE AND SOUTHERN FOOTHILLS...

CITY           SKY/WX    TMP DP  RH WIND       PRES   REMARKS
COLO. SPRINGS  PTCLDY    40  23  50 N9        30.25F
A. F. ACADEMY  CLEAR     31  22  69 N9        30.25F WCI  22
ELLICOTT       PTCLDY   N/A N/A N/A CALM      30.23F
FALCON         PTCLDY    36  20  53 NW8       30.28F
FORT CARSON    CLEAR     39  25  56 NW13      30.22F
LIMON          CLEAR     29  23  78 N10       30.18F WCI  20
MONUMENT HILL  CLEAR     41  19  42 SW10      30.27S
TRINIDAD       PTCLDY    40  23  50 W16       30.25F
$$

COZ042>045-048>051-090-091-271200-
...NORTHEAST COLORADO...

CITY           SKY/WX    TMP DP  RH WIND       PRES   REMARKS
GREELEY ARPT   CLEAR     28  19  69 CALM      30.13S
AKRON          PTCLDY    43  28  55 SW15      30.12F
BURLINGTON     CLEAR     41  28  60 W12       30.13F
WRAY           CLEAR     35  30  82 W9        30.09F WCI  27
STERLING       PTCLDY    36  32  87 SW9       30.10F
HOLYOKE        CLEAR     41  32  70 W12       30.08F
FORT MORGAN    PTCLDY    33  27  77 W8        30.13F WCI  26
$$

COZ086-089-092>099-271200-
...SOUTHEAST COLORADO...

CITY           SKY/WX    TMP DP  RH WIND       PRES   REMARKS
PUEBLO         PTCLDY    30  26  85 W6        30.20F WCI  24
LA JUNTA       PTCLDY    38  28  67 W12       30.18F
LAMAR          CLEAR     34  30  85 W9        30.16S WCI  27
SPRINGFIELD      N/A     39  26  59 NW3       30.18S
$$



USA.gov is the U.S. government's official web portal to all federal, state and local government web resources and services.